FW2122 Weather Reports


time (UTC)temp
F
wind
direction
speed
knots
gust
knots
rain 1hr
in
rain 24hr
in
rain mn
in
humidity
%
barometer
mb
20260508151538 56 213 5.2 13.9 0.00 0.00 0.00 59 1021.1
20260508150035 56 218 5.2 13.0 0.00 0.00 0.00 59 1021.0
20260508144535 56 208 4.3 11.3 0.00 0.00 0.00 58 1020.7
20260508143033 55 91 1.7 7.8 0.00 0.00 0.00 56 1020.7
20260508141608 55 22 1.7 7.8 0.00 0.00 0.00 56 1020.6
20260508140142 55 325 1.7 6.1 0.00 0.00 0.00 55 1020.5
20260508134535 55 4 0.9 5.2 0.00 0.00 0.00 55 1020.4
20260508133035 56 252 1.7 7.0 0.00 0.00 0.00 56 1020.2
20260508130036 56 209 3.5 8.7 0.00 0.00 0.00 57 1020.0
20260508124532 56 193 2.6 8.7 0.00 0.00 0.00 59 1019.9
20260508123035 55 205 2.6 10.4 0.00 0.00 0.00 62 1019.9
20260508121609 53 196 0.9 5.2 0.00 0.00 0.00 66 1019.8
20260508120142 48 171 0.9 3.5 0.00 0.00 0.00 70 1019.7
20260508114535 47 115 0.0 2.6 0.00 0.00 0.00 70 1019.6
20260508113149 46 107 0.0 2.6 0.00 0.00 0.00 69 1019.4
20260508111648 46 138 0.9 3.5 0.00 0.00 0.00 69 1019.3
20260508110033 46 156 0.9 3.5 0.00 0.00 0.00 67 1019.2
20260508104529 46 120 0.9 2.6 0.00 0.00 0.00 66 1019.2
20260508103120 46 122 0.9 3.5 0.00 0.00 0.00 65 1019.3
20260508103111 45 124 0.9 3.5 0.00 0.00 0.00 64 1019.3
20260508100154 45 132 0.0 1.7 0.00 0.00 0.00 62 1019.3
20260508094532 46 125 0.0 2.6 0.00 0.00 0.00 61 1019.3
20260508093033 46 127 0.9 3.5 0.00 0.00 0.00 60 1019.2
20260508091535 47 116 0.9 4.3 0.00 0.00 0.00 59 1019.3
20260508090108 47 115 0.0 3.5 0.00 0.00 0.00 59 1019.2
20260508083035 48 114 0.9 3.5 0.00 0.00 0.00 56 1019.3
20260508081531 52 128 0.0 3.5 0.00 0.00 0.00 52 1019.3
20260508073034 50 172 0.0 3.5 0.00 0.00 0.00 53 1019.4
20260508071608 51 143 0.0 3.5 0.00 0.00 0.00 51 1019.4
20260508064535 55 192 0.9 5.2 0.00 0.00 0.00 47 1019.4
20260508063144 54 202 0.9 4.3 0.00 0.00 0.00 49 1019.5
20260508061543 53 189 0.0 1.7 0.00 0.00 0.00 47 1019.5
20260508060034 53 125 0.0 0.9 0.00 0.00 0.00 46 1019.6
20260508053032 53 189 0.0 0.9 0.00 0.00 0.00 43 1019.6
20260508051534 54 199 0.0 1.7 0.00 0.00 0.00 41 1019.6
20260508050031 55 180 0.0 1.7 0.00 0.00 0.00 40 1019.6
20260508044537 55 148 0.0 3.5 0.00 0.00 0.00 39 1019.5
20260508043035 57 144 0.0 2.6 0.00 0.00 0.00 38 1019.4
20260508041532 58 170 0.0 3.5 0.00 0.00 0.00 36 1019.3
20260508040031 60 195 0.9 5.2 0.00 0.00 0.00 34 1019.1
20260508033111 62 207 0.9 7.0 0.00 0.00 0.00 30 1018.7
20260508031644 0 0 0.0 0.0 0.00 0.00 0.00 100
20260508030037 63 231 2.6 7.0 0.00 0.00 0.00 27 1018.5
20260508024534 65 227 0.9 7.0 0.00 0.00 0.00 26 1018.5
20260508023035 67 270 1.7 7.0 0.00 0.00 0.00 25 1018.4
20260508021530 67 258 1.7 7.0 0.00 0.00 0.00 25 1018.2
20260508020034 68 248 1.7 7.8 0.00 0.00 0.00 25 1018.2
20260508014536 69 256 2.6 7.0 0.00 0.00 0.00 25 1018.1
20260508013150 70 264 2.6 7.8 0.00 0.00 0.00 24 1018.2
20260508011533 71 250 3.5 12.2 0.00 0.00 0.00 24 1018.3
20260508010037 72 238 2.6 9.6 0.00 0.00 0.00 24 1018.3
20260508004638 71 262 2.6 9.6 0.00 0.00 0.00 23 1018.2
20260508003108 72 249 3.5 10.4 0.00 0.00 0.00 22 1018.2
20260508001534 72 244 4.3 11.3 0.00 0.00 0.00 22 1018.1
20260508000038 72 232 4.3 13.0 0.00 0.00 0.00 22 1018.1
20260507234542 72 229 4.3 12.2 0.00 0.00 0.00 22 1018.1
20260507234536 72 237 4.3 11.3 0.00 0.00 0.00 22 1018.2
20260507231534 72 237 5.2 13.0 0.00 0.00 0.00 22 1018.4
20260507230031 72 231 4.3 13.0 0.00 0.00 0.00 22 1018.5
20260507223035 71 236 5.2 12.2 0.00 0.00 0.00 23 1018.6
20260507221535 71 237 5.2 13.0 0.00 0.00 0.00 23 1018.8
20260507214534 70 230 5.2 12.2 0.00 0.00 0.00 24 1019.1
20260507210110 70 220 5.2 12.2 0.00 0.00 0.00 25 1019.2
20260507203032 70 228 4.3 11.3 0.00 0.00 0.00 26 1019.6
20260507201533 70 217 4.3 10.4 0.00 0.00 0.00 27 1019.7
20260507200038 70 214 5.2 12.2 0.00 0.00 0.00 27 1019.9
20260507194534 70 204 5.2 11.3 0.00 0.00 0.00 28 1020.0
20260507193110 69 199 5.2 12.2 0.00 0.00 0.00 28 1020.1
20260507191530 69 198 5.2 14.8 0.00 0.00 0.00 28 1020.2
20260507181536 67 189 3.5 10.4 0.00 0.00 0.00 34 1020.6
20260507180110 66 201 4.3 10.4 0.00 0.00 0.00 35 1020.7
20260507174643 65 200 4.3 10.4 0.00 0.00 0.00 36 1021.0
20260507173034 64 203 4.3 9.6 0.00 0.00 0.00 37 1021.0
20260507171540 62 220 3.5 9.6 0.00 0.00 0.00 44 1021.1
20260507164610 60 218 3.5 9.6 0.00 0.00 0.00 47 1021.2
20260507163037 60 231 5.2 12.2 0.00 0.00 0.00 50 1021.3
20260507161533 59 236 3.5 9.6 0.00 0.00 0.00 53 1021.5
20260507160036 58 238 2.6 10.4 0.00 0.00 0.00 55 1021.5
20260507154534 58 223 2.6 9.6 0.00 0.00 0.00 56 1021.5
20260507153111 57 233 3.5 12.2 0.00 0.00 0.00 58 1021.6